Starlink 33865

operational
NORAD ID: 64247 Int'l Des: 2025-119 Owner: SPXS Country: US Constellation: starlink
LEOCIRCULAR

About Starlink 33865

Description loading...

Live Position

Loading 3D Globe...

Upcoming Passes

Altitude History

Altitude vs Time

uPlot chart will show altitude changes over time

Two-Line Element Set

1 64247U 25119Q 25307.04208822 .00031410 00000-0 11454-2 0 9990
2 64247 42.9980 301.9935 0000732 254.3728 105.7043 15.27601184 24775
Epoch: Nov 3, 2025 • Age: 34 hours

Current Status

Altitude 484.0 km
Velocity 7.62 km/s
Sub-Earth Point -9.01°S, 68.06°E
Launch Date Jun 3, 2025
Age 0.4 years
Type internet

Technical Details

Classification Payload
Mass 575.00 kg
Dry Mass 530.00 kg
Total Mass 575.00 kg
Length 0.30 m
Diameter 4.10 m
Span 29.00 m
Shape Box + pan
Manufacturer SPXS
Bus Type Starlink V2MO
Phase Status In Orbit
Owner/State SPXS/US

Large Constellations

Loading constellations...